Home   Weather   San Luis   Past weeks
Flag for Argentina

Past Weather in San Luis, San Luis, Argentina — Yesterday and Last 2 Weeks

Now
63 °F

Overcast.


Feels Like: 63 °F
Forecast: 62 / 46 °F
Wind: 9 mph from North

Location: Villa Dolores Aerodrome

Current Time: Jul 21, 2019 at 6:26:11 am

Latest Report: Jul 21, 2019 at 3:00 am


Visibility: 19 mi

Pressure: 29.47 "Hg (27.04 "Hg at 731m altitude)

Humidity: 78%

Dew Point: 56 °F

Location of San LuisLocation

Past Weather in San Luis — Graph

°F

San Luis Temperature Yesterday

Maximum temperature yesterday: 74 °F (at 3:00 pm)
Minimum temperature yesterday: 47 °F (at 8:00 am)
Average temperature yesterday: 62 °F

High & Low Weather Summary for the Past Weeks

 TemperatureHumidityPressure
High74 °F (Jul 20, 3:00 pm)100% (Jul 12, 8:00 pm)30.43 "Hg (Jul 12, 8:00 pm)
Low35 °F (Jul 6, 8:00 am)23% (Jul 18, 6:00 pm)29.47 "Hg (Jul 21, 3:00 am)
Average57 °F59%30.05 "Hg
* Reported Jul 6 3:00 am — Jul 21 3:00 am, San Luis. Weather by CustomWeather, © 2019

Note: Actual official high and low records may vary slightly from our data, if they occured in-between our weather recording intervals... More about our weather records

Advertising

San Luis Weather History for the Previous 24 Hours

Scroll right to see more
 ConditionsComfort  
Time TempWeatherWind HumidityBarometerVisibility
3:00 am
Sun, Jul 21
63 °FOvercast.9 mph78%29.47 "Hg19 mi
12:00 am67 °FOvercast.18 mph62%29.55 "Hg19 mi
9:00 pm
Sat, Jul 20
67 °FOvercast.14 mph65%29.58 "Hg19 mi
8:00 pm66 °FOvercast.17 mph63%29.60 "Hg19 mi
7:00 pm68 °FPassing clouds.13 mph60%29.65 "Hg19 mi
6:00 pm71 °FOvercast.15 mph53%29.65 "Hg19 mi
5:00 pm73 °FPartly sunny.17 mph46%29.64 "Hg19 mi
4:00 pm73 °FPartly sunny.20 mph50%29.69 "Hg19 mi
3:00 pm74 °FPartly sunny.23 mph45%29.69 "Hg19 mi
2:00 pm72 °FPartly sunny.14 mph47%29.71 "Hg12 mi
1:00 pm68 °FOvercast.No wind56%29.80 "Hg12 mi
12:00 pm65 °FPartly sunny.7 mph59%29.80 "Hg12 mi
11:00 am65 °FPartly sunny.No wind64%29.81 "Hg12 mi
10:00 am57 °FPartly sunny.3 mph71%29.83 "Hg12 mi
9:00 am49 °FPartly sunny.8 mph87%29.85 "Hg12 mi
8:00 am47 °FPassing clouds.3 mph92%29.86 "Hg12 mi
7:00 am47 °FPassing clouds.6 mph89%29.87 "Hg19 mi
6:00 am50 °FPassing clouds.9 mph82%29.87 "Hg19 mi
Weather by CustomWeather, © 2019

See weather overview